Date Time,Air Temp,Sky Temp,Clarity,Light Level,Rain Sensor,Readings
2009-11-23 00:00:00,20.5,-11.8,32.3,0.0,2.7,111
2009-11-23 00:05:00,20.4,-16.8,37.2,0.0,2.7,112
2009-11-23 00:10:00,20.4,-15.0,35.4,0.0,2.7,112
2009-11-23 00:15:00,20.3,-18.6,38.9,0.0,2.7,112
2009-11-23 00:20:00,20.3,-25.7,45.9,0.0,2.7,111
2009-11-23 00:25:00,20.2,-25.5,45.7,0.0,2.6,111
2009-11-23 00:30:00,20.2,-24.3,44.5,0.0,2.5,112
2009-11-23 00:35:00,20.2,-17.5,37.7,0.0,2.6,111
2009-11-23 00:40:00,20.2,-9.0,29.1,0.0,2.6,112
2009-11-23 00:45:00,20.2,-10.5,30.7,0.0,2.6,111
2009-11-23 00:50:00,20.3,-22.9,43.1,0.0,2.6,112
2009-11-23 00:55:00,20.2,-24.1,44.3,0.0,2.7,112
2009-11-23 01:00:00,20.1,-23.8,43.9,0.0,2.7,111
2009-11-23 01:05:00,20.1,-23.2,43.2,0.0,2.7,112
2009-11-23 01:10:00,20.1,-24.3,44.4,0.0,2.7,111
2009-11-23 01:15:00,20.1,-22.5,42.6,0.0,2.7,111
2009-11-23 01:20:00,20.1,-23.2,43.3,0.0,2.7,112
2009-11-23 01:25:00,19.8,-16.7,36.5,0.0,2.7,111
2009-11-23 01:30:00,20.2,-16.0,36.2,0.0,2.7,112
2009-11-23 01:35:00,20.3,-18.4,38.7,0.0,2.6,112
2009-11-23 01:40:00,20.3,-11.7,32.0,0.0,2.6,111
2009-11-23 01:45:00,20.4,-16.3,36.6,0.0,2.6,112
2009-11-23 01:50:00,20.4,-9.9,30.3,0.0,2.7,111
2009-11-23 01:55:00,20.4,-19.0,39.4,0.0,2.7,112
2009-11-23 02:00:00,20.4,-23.2,43.7,0.0,2.7,111
2009-11-23 02:05:00,20.3,-21.0,41.4,0.0,2.7,112
2009-11-23 02:10:00,20.5,-9.2,29.7,0.0,2.7,112
2009-11-23 02:15:00,20.6,-2.7,23.3,0.0,2.7,111
2009-11-23 02:20:00,20.7,-3.8,24.5,0.0,2.7,112
2009-11-23 02:25:00,20.8,-5.7,26.5,0.0,2.7,112
2009-11-23 02:30:00,20.8,-14.1,34.9,0.0,2.7,111
2009-11-23 02:35:00,20.7,-13.3,34.1,0.0,2.7,112
2009-11-23 02:40:00,20.8,-2.1,22.9,0.0,2.7,112
2009-11-23 02:45:00,20.9,-3.6,24.4,0.0,2.7,111
2009-11-23 02:50:00,20.9,-7.6,28.5,0.0,2.7,112
2009-11-23 02:55:00,20.9,-2.0,22.8,0.0,2.7,111
2009-11-23 03:00:00,20.9,-1.3,22.3,0.0,2.7,112
2009-11-23 03:05:00,21.0,-0.5,21.4,0.0,2.8,112
2009-11-23 03:10:00,21.1,-0.7,21.8,0.0,3.2,112
2009-11-23 03:15:00,21.0,-3.3,24.4,0.0,3.3,111
2009-11-23 03:20:00,21.1,-1.0,22.1,0.0,2.9,112
2009-11-23 03:25:00,21.1,-1.3,22.4,0.0,3.1,112
2009-11-23 03:30:00,21.3,-1.8,23.0,0.0,3.2,111
2009-11-23 03:35:00,21.4,-2.2,23.6,0.0,3.2,112
2009-11-23 03:40:00,21.1,0.7,20.4,0.0,3.2,111
2009-11-23 03:45:00,19.1,0.4,18.7,0.0,3.2,111
2009-11-23 03:50:00,17.8,1.4,16.3,0.0,3.2,112
2009-11-23 03:55:00,17.3,2.3,15.0,0.0,3.3,110
2009-11-23 04:00:00,17.0,0.4,16.6,0.0,6.9,112
2009-11-23 04:05:00,17.1,-2.5,19.7,0.0,4.1,111
2009-11-23 04:10:00,19.5,-5.8,25.3,0.0,3.9,112
2009-11-23 04:15:00,21.0,-7.0,28.0,0.0,3.9,111
2009-11-23 04:20:00,21.5,-3.4,24.9,0.0,3.9,112
2009-11-23 04:25:00,21.8,-0.7,22.5,0.0,3.8,111
2009-11-23 04:30:00,22.1,-0.9,22.9,0.0,3.9,112
2009-11-23 04:35:00,21.7,1.3,20.4,0.0,3.9,111
2009-11-23 04:40:00,19.4,2.3,17.1,0.0,4.0,111
2009-11-23 04:45:00,18.2,3.4,14.9,0.0,3.9,112
2009-11-23 04:50:00,18.0,3.2,14.8,0.0,4.1,111
2009-11-23 04:55:00,17.9,1.4,16.4,0.0,11.6,111
2009-11-23 05:00:00,17.7,2.9,14.8,0.0,5.3,112
2009-11-23 05:05:00,17.5,3.6,13.9,0.0,5.8,112
2009-11-23 05:10:03,17.4,3.3,14.2,0.0,10.1,111
2009-11-23 05:15:03,17.5,3.2,14.3,0.0,9.6,111
2009-11-23 05:20:03,17.5,3.8,13.7,0.0,9.9,112
2009-11-23 05:25:03,17.4,4.5,12.9,0.0,9.5,112
2009-11-23 05:30:03,17.4,6.5,10.9,0.0,19.3,111
2009-11-23 05:35:03,17.5,6.5,11.0,0.0,25.0,112
2009-11-23 05:40:03,17.7,7.3,10.5,0.0,17.6,111
2009-11-23 05:45:03,17.9,6.1,11.9,0.0,16.7,112
2009-11-23 05:50:03,17.9,6.1,11.8,0.0,20.3,111
2009-11-23 05:55:03,18.0,5.6,12.4,0.0,20.3,112
2009-11-23 06:00:03,17.7,6.4,11.3,0.0,31.5,111
2009-11-23 06:05:03,17.6,4.9,12.6,0.0,21.5,111
2009-11-23 06:10:03,17.8,5.7,12.2,0.0,19.7,111
2009-11-23 06:15:03,17.9,5.7,12.2,0.0,21.8,112
2009-11-23 06:20:03,18.0,6.2,11.8,0.0,15.2,111
2009-11-23 06:25:03,18.0,6.2,11.7,0.0,30.9,111
2009-11-23 06:30:03,17.4,4.6,12.9,0.0,24.7,112
2009-11-23 06:35:03,17.4,5.5,11.8,0.0,24.4,111
2009-11-23 06:40:03,17.4,6.8,10.6,0.1,13.0,112
2009-11-23 06:45:03,17.5,5.8,11.7,0.2,27.9,111
2009-11-23 06:50:03,17.5,6.5,11.0,0.3,16.0,112
2009-11-23 06:55:03,17.9,6.5,11.4,1.3,6.7,111
2009-11-23 07:00:03,17.9,7.1,10.8,2.1,3.5,112
2009-11-23 07:05:03,17.8,6.6,11.3,3.5,10.1,111
2009-11-23 07:10:03,17.9,7.0,10.8,5.6,3.0,112
2009-11-23 07:15:03,17.9,7.4,10.5,8.1,2.9,111
2009-11-23 07:20:03,18.0,6.3,11.6,15.0,2.3,112
2009-11-23 07:25:03,18.0,5.1,12.9,21.5,2.4,112
2009-11-23 07:30:03,18.1,4.8,13.3,27.1,2.3,111
2009-11-23 07:35:03,18.2,4.8,13.4,28.4,2.4,112
2009-11-23 07:40:03,18.3,4.9,13.4,28.7,2.7,112
2009-11-23 07:45:03,18.3,4.8,13.4,29.7,2.8,111
2009-11-23 07:50:03,18.2,5.1,13.2,30.4,2.4,112
2009-11-23 07:55:03,18.3,4.9,13.4,31.1,2.5,112
2009-11-23 08:00:03,18.4,3.8,14.6,31.3,9.3,112
2009-11-23 08:05:03,18.5,3.9,14.6,31.5,10.4,111
2009-11-23 08:10:03,18.5,3.1,15.5,31.9,4.8,112
2009-11-23 08:15:03,18.7,2.7,16.0,32.0,2.5,111
2009-11-23 08:20:03,18.3,3.1,15.2,32.1,2.7,111
2009-11-23 08:25:03,18.3,3.5,14.8,32.1,5.7,111
2009-11-23 08:30:03,18.2,4.4,13.8,32.2,3.4,112
2009-11-23 08:35:03,18.1,4.7,13.4,32.1,8.7,112
2009-11-23 08:40:03,18.2,5.2,13.0,31.9,9.5,112
2009-11-23 08:45:03,18.4,6.2,12.2,31.8,10.3,111
2009-11-23 08:50:03,18.3,6.6,11.7,31.9,21.6,112
2009-11-23 08:55:03,18.4,7.2,11.2,31.9,21.3,111
2009-11-23 09:00:03,18.5,7.0,11.5,31.8,10.9,112
2009-11-23 09:05:03,18.7,6.7,11.9,32.1,8.2,111
2009-11-23 09:10:03,18.7,5.9,12.8,32.1,7.4,112
2009-11-23 09:15:03,18.4,6.3,12.1,32.2,6.2,111
2009-11-23 09:20:03,18.7,7.1,11.6,32.3,3.9,111
2009-11-23 09:25:03,18.3,4.8,13.5,32.2,3.2,112
2009-11-23 09:30:03,18.6,6.2,12.4,32.3,10.1,112
2009-11-23 09:35:03,18.7,6.9,11.8,32.3,2.6,111
2009-11-23 09:40:03,18.7,4.9,13.8,32.3,2.3,112
2009-11-23 09:45:03,18.8,5.2,13.6,32.3,2.3,112
2009-11-23 09:50:03,18.9,5.0,13.9,32.3,2.4,112
2009-11-23 09:55:03,19.0,3.4,15.7,32.3,2.3,111
2009-11-23 10:00:03,19.0,5.1,13.9,32.3,2.5,112
2009-11-23 10:05:03,18.8,5.1,13.7,32.2,22.5,112
2009-11-23 10:10:03,18.5,6.9,11.6,32.3,12.2,111
2009-11-23 10:15:03,18.6,7.6,11.0,32.3,6.6,112
2009-11-23 10:20:03,18.7,7.4,11.2,32.1,12.4,111
2009-11-23 10:25:03,18.7,7.5,11.2,32.2,7.3,112
2009-11-23 10:30:03,18.8,6.4,12.4,32.1,11.3,111
2009-11-23 10:35:03,18.8,6.0,12.8,32.0,11.5,112
2009-11-23 10:40:03,18.8,5.4,13.4,32.2,3.0,111
2009-11-23 10:45:03,18.7,4.5,14.1,32.2,2.4,112
2009-11-23 10:50:03,18.8,4.9,13.9,32.3,2.3,111
2009-11-23 10:55:03,18.8,5.3,13.5,32.3,2.4,112
2009-11-23 11:00:03,18.9,4.7,14.2,32.4,3.2,111
2009-11-23 11:05:03,19.0,4.7,14.3,32.4,2.3,112
2009-11-23 11:10:03,19.1,4.9,14.2,32.4,2.3,112
2009-11-23 11:15:03,19.2,5.3,13.9,32.4,2.3,111
2009-11-23 11:20:03,19.3,6.0,13.3,32.1,2.5,112
2009-11-23 11:25:03,19.1,5.6,13.5,32.1,22.1,111
2009-11-23 11:30:03,18.9,6.1,12.8,32.2,17.1,112
2009-11-23 11:35:03,18.9,5.4,13.6,32.2,17.8,111
2009-11-23 11:40:03,18.9,7.1,11.8,32.1,14.3,112
2009-11-23 11:45:03,19.0,7.0,12.0,32.1,8.6,111
2009-11-23 11:50:03,18.9,7.6,11.3,32.2,3.5,112
2009-11-23 11:55:03,18.9,7.5,11.3,32.1,4.1,111
2009-11-23 12:00:03,18.8,5.1,13.7,31.9,9.7,112
2009-11-23 12:05:03,18.9,4.0,14.9,32.3,4.8,112
2009-11-23 12:10:03,18.9,3.0,15.8,32.3,2.7,111
2009-11-23 12:15:03,18.9,3.5,15.4,32.3,6.5,111
2009-11-23 12:20:03,19.0,3.4,15.7,32.3,4.2,112
2009-11-23 12:25:03,18.9,4.5,14.4,32.2,4.1,111
2009-11-23 12:30:03,19.0,4.8,14.2,32.1,15.1,112
2009-11-23 12:35:03,19.0,2.4,16.7,32.2,9.6,111
2009-11-23 12:40:03,18.9,5.4,13.5,32.2,2.3,112
2009-11-23 12:45:03,18.8,5.3,13.5,32.3,2.3,111
2009-11-23 12:50:03,18.9,2.4,16.4,32.4,2.3,111
2009-11-23 12:55:03,18.8,4.2,14.6,32.4,15.2,112
2009-11-23 13:00:03,18.4,6.3,12.1,32.2,26.8,111
2009-11-23 13:05:03,18.0,4.2,13.8,32.4,18.3,112
2009-11-23 13:10:03,18.2,3.2,15.0,32.4,2.9,111
2009-11-23 13:15:03,18.3,4.8,13.5,32.4,2.3,112
2009-11-23 13:20:03,18.5,5.0,13.5,32.4,2.3,111
2009-11-23 13:25:03,18.7,5.6,13.2,32.4,2.3,112
2009-11-23 13:30:03,19.0,4.8,14.2,32.4,2.3,111
2009-11-23 13:35:03,19.2,5.0,14.2,32.3,7.9,112
2009-11-23 13:40:03,19.2,5.1,14.1,32.4,3.5,111
2009-11-23 13:45:03,19.0,4.7,14.3,32.3,18.2,112
2009-11-23 13:50:03,18.6,0.5,18.1,32.4,8.4,111
2009-11-23 13:55:03,19.7,0.4,19.3,32.5,2.1,111
2009-11-23 14:00:03,22.1,-15.0,37.1,32.6,2.3,112
2009-11-23 14:05:03,23.8,-17.9,41.7,32.6,2.3,111
2009-11-23 14:10:03,24.3,-10.4,34.7,32.6,2.3,112
2009-11-23 14:15:03,24.8,-15.6,40.4,32.5,2.3,112
2009-11-23 14:20:03,24.4,-18.1,42.5,32.6,2.2,111
2009-11-23 14:25:03,24.5,-19.2,43.7,32.5,2.3,111
2009-11-23 14:30:03,24.3,-18.7,43.0,32.6,2.2,112
2009-11-23 14:35:03,24.1,-13.9,38.0,32.4,2.3,112
2009-11-23 14:40:03,23.8,-3.0,26.8,32.4,2.3,111
2009-11-23 14:45:03,23.7,-1.4,25.0,32.4,2.3,112
2009-11-23 14:50:03,23.7,-1.0,24.7,32.4,2.3,112
2009-11-23 14:55:03,23.8,-10.8,34.6,32.6,2.3,111
2009-11-23 15:00:03,24.1,-18.4,42.5,32.6,2.3,111
2009-11-23 15:05:03,23.7,-16.6,40.3,32.6,2.3,112
2009-11-23 15:10:03,24.1,-18.0,42.1,32.5,2.3,111
2009-11-23 15:15:03,24.1,-11.3,35.4,32.5,2.3,112
2009-11-23 15:20:03,24.1,-15.9,40.0,32.5,2.3,111
2009-11-23 15:25:03,24.0,-17.8,41.8,32.5,2.3,112
2009-11-23 15:30:03,23.8,-2.3,26.1,32.2,2.3,111
2009-11-23 15:35:03,23.6,0.6,23.0,32.0,2.3,111
2009-11-23 15:40:03,23.4,0.6,22.8,32.0,2.3,112
2009-11-23 15:45:03,23.0,1.2,21.8,32.1,2.3,111
2009-11-23 15:50:03,23.4,0.8,22.6,31.9,2.3,111
2009-11-23 15:55:03,23.4,0.9,22.5,31.2,2.3,111
2009-11-23 16:00:03,23.3,0.3,23.0,31.1,2.3,111
2009-11-23 16:05:03,23.2,-0.3,23.5,30.8,2.3,112
2009-11-23 16:10:03,23.1,0.2,22.8,29.9,2.3,111
2009-11-23 16:15:03,23.0,0.7,22.4,28.3,2.3,111
2009-11-23 16:20:03,23.0,0.4,22.6,26.2,2.3,112
2009-11-23 16:25:03,23.0,0.7,22.3,22.6,2.3,111
2009-11-23 16:30:03,22.9,0.3,22.6,17.7,2.3,111
2009-11-23 16:35:03,22.9,0.8,22.1,11.7,2.3,112
2009-11-23 16:40:03,23.0,0.8,22.2,7.1,2.3,111
2009-11-23 16:45:03,23.0,1.1,21.9,3.4,2.3,111
2009-11-23 16:50:03,22.9,1.1,21.8,1.6,2.3,111
2009-11-23 16:55:03,22.8,0.7,22.2,0.9,2.3,111
2009-11-23 17:00:03,22.3,0.9,21.5,0.5,2.3,111
2009-11-23 17:05:03,22.7,0.6,22.1,0.3,2.3,111
2009-11-23 17:10:03,22.7,0.7,22.0,0.2,2.3,112
2009-11-23 17:15:03,22.7,0.6,22.2,0.1,2.4,111
2009-11-23 17:20:03,22.7,-0.7,23.4,0.1,2.5,112
2009-11-23 17:25:03,22.7,0.5,22.2,0.1,2.6,111
2009-11-23 17:30:03,22.7,1.2,21.5,0.1,2.6,111
2009-11-23 17:35:03,22.6,1.2,21.4,0.1,2.8,111
2009-11-23 17:40:03,22.5,1.1,21.4,0.1,2.5,111
2009-11-23 17:45:03,22.6,0.9,21.7,0.1,2.5,111
2009-11-23 17:50:03,22.6,0.4,22.2,0.1,2.6,111
2009-11-23 17:55:03,22.6,-8.0,30.6,0.1,2.5,111
2009-11-23 18:00:03,22.5,-10.6,33.1,0.0,2.4,112
2009-11-23 18:05:03,22.3,-14.1,36.4,0.0,2.3,111
2009-11-23 18:10:03,22.2,-19.2,41.4,0.0,2.3,112
2009-11-23 18:15:03,22.1,-13.3,35.3,0.0,2.3,111
2009-11-23 18:20:03,22.1,-2.2,24.2,0.0,2.3,112
2009-11-23 18:25:03,22.1,-16.5,38.6,0.1,2.3,111
2009-11-23 18:30:03,22.0,-17.4,39.5,0.0,2.3,112
2009-11-23 18:35:03,21.9,-16.5,38.4,0.0,2.3,112
2009-11-23 18:40:03,21.9,-19.7,41.7,0.0,2.3,111
2009-11-23 18:45:03,21.9,-18.0,39.9,0.0,2.4,112
2009-11-23 18:50:03,21.4,-19.6,41.1,0.0,2.4,112
2009-11-23 18:55:03,21.5,-18.3,39.7,0.0,2.3,111
2009-11-23 19:00:03,21.1,-10.9,31.9,0.1,2.3,112
2009-11-23 19:05:03,21.0,-2.8,23.7,0.0,2.3,111
2009-11-23 19:10:03,20.5,-0.5,21.0,0.0,2.3,111
2009-11-23 19:15:03,20.8,-5.1,25.9,0.0,2.3,112
2009-11-23 19:20:03,20.9,-2.5,23.4,0.0,2.2,112
2009-11-23 19:25:03,21.0,-3.5,24.5,0.0,2.3,112
2009-11-23 19:30:03,21.1,-5.0,26.1,0.0,2.3,111
2009-11-23 19:35:03,21.4,-5.3,26.7,0.1,2.3,112
2009-11-23 19:40:03,21.6,-10.5,32.0,0.1,2.3,112
2009-11-23 19:45:03,21.5,-21.1,42.6,0.0,2.3,111
2009-11-23 19:50:03,21.2,-21.5,42.7,0.0,2.3,112
2009-11-23 19:55:03,21.1,-20.0,41.1,0.0,2.3,111
2009-11-23 20:00:03,21.0,-21.4,42.3,0.0,2.4,112
2009-11-23 20:05:03,20.9,-21.0,41.9,0.0,2.4,111
2009-11-23 20:10:03,20.8,-21.3,42.1,0.0,2.3,111
2009-11-23 20:15:03,20.8,-21.1,41.9,0.0,2.3,112
2009-11-23 20:20:03,20.8,-20.8,41.6,0.0,2.3,112
2009-11-23 20:25:03,20.8,-20.8,41.5,0.0,2.3,111
2009-11-23 20:30:03,20.8,-21.2,42.1,0.0,2.4,112
2009-11-23 20:35:03,20.8,-21.2,42.0,0.0,2.3,111
2009-11-23 20:40:03,20.6,-20.6,41.2,0.0,2.3,112
2009-11-23 20:45:03,20.7,-19.7,40.3,0.0,2.3,111
2009-11-23 20:50:03,20.7,-19.1,39.7,0.0,2.3,112
2009-11-23 20:55:03,20.6,-19.3,39.9,0.0,2.3,112
2009-11-23 21:00:03,20.6,-19.3,40.0,0.0,2.3,111
2009-11-23 21:05:03,20.6,-19.2,39.8,0.0,2.3,112
2009-11-23 21:10:03,20.7,-18.9,39.6,0.0,2.3,112
2009-11-23 21:15:03,20.7,-18.5,39.2,0.0,2.3,111
2009-11-23 21:20:03,20.7,-15.0,35.7,0.0,2.3,112
2009-11-23 21:25:03,20.8,-16.5,37.2,0.0,2.3,112
2009-11-23 21:30:03,20.7,-20.6,41.3,0.0,2.3,111
2009-11-23 21:35:03,20.7,-21.0,41.7,0.0,2.3,112
2009-11-23 21:40:03,20.8,-21.5,42.3,0.0,2.3,111
2009-11-23 21:45:03,20.7,-22.3,43.0,0.0,2.3,111
2009-11-23 21:50:03,20.7,-22.7,43.3,0.0,2.3,112
2009-11-23 21:55:03,20.6,-22.2,42.8,0.0,2.3,112
2009-11-23 22:00:03,20.6,-19.8,40.4,0.0,2.3,112
2009-11-23 22:05:03,20.7,-22.7,43.4,0.0,2.3,111
2009-11-23 22:10:03,20.7,-22.0,42.7,0.0,2.3,112
2009-11-23 22:15:03,20.7,-19.0,39.7,0.0,2.3,112
2009-11-23 22:20:03,20.8,-20.8,41.5,0.0,2.3,112
2009-11-23 22:25:03,20.8,-22.3,43.0,0.0,2.3,111
2009-11-23 22:30:03,20.8,-22.2,42.9,0.0,2.3,112
2009-11-23 22:35:03,20.8,-22.2,42.9,0.0,2.3,111
2009-11-23 22:40:03,20.8,-19.3,40.1,0.0,2.3,112
2009-11-23 22:45:03,20.8,-15.0,35.8,0.0,2.3,111
2009-11-23 22:50:03,20.9,-9.2,30.1,0.0,2.3,112
2009-11-23 22:55:03,21.0,-14.5,35.5,0.0,2.3,112
2009-11-23 23:00:03,21.0,-20.1,41.2,0.0,2.3,111
2009-11-23 23:05:03,21.0,-15.8,36.8,0.0,2.3,111
2009-11-23 23:10:03,21.0,-19.1,40.1,0.0,2.3,112
2009-11-23 23:15:03,21.1,-10.9,32.0,0.0,2.3,111
2009-11-23 23:20:03,21.2,-17.7,38.8,0.0,2.3,111
2009-11-23 23:25:03,21.1,-21.7,42.8,0.0,2.3,112
2009-11-23 23:30:03,21.0,-22.1,43.0,0.0,2.3,111
2009-11-23 23:35:03,20.8,-21.8,42.6,0.0,2.3,112
2009-11-23 23:40:03,20.8,-22.0,42.8,0.0,2.3,112
2009-11-23 23:45:03,20.8,-22.2,43.0,0.0,2.3,111
2009-11-23 23:50:03,20.8,-22.3,43.1,0.0,2.3,112
2009-11-23 23:55:03,20.8,-22.3,43.1,0.0,2.3,111
